Regional Weather Roundup
Issued by NWS

Home | Current Version | Previous Version | Graphics & Text | Print | Product List | Glossary Off
Versions: 1 2 3 4 5 6 7 8 9 10 11 12 13 14 15 16 17 18 19 20 21 22 23 24 25 26 27 28 29 30 31 32 33 34 35 36 37 38 39 40 41 42 43 44 45 46 47 48 49 50

000
ASUS43 KDMX 141106
RWRIA

WEATHER ROUNDUP FOR IOWA
NATIONAL WEATHER SERVICE DES MOINES IA
500 AM CST THU DEC 14 2017

NOTE: "FAIR" INDICATES FEW OR NO CLOUDS BELOW 12,000 FEET WITH NO
SIGNIFICANT WEATHER AND/OR OBSTRUCTIONS TO VISIBILITY.

* - THESE STATIONS ARE NOT NWS STATIONS...THUS NOT UNDER NWS
QUALITY CONTROL.  THEY ALSO DO NOT REPORT WEATHER SUCH
AS PRECIPITATION OR FOG.

IAZ001>003-012>014-020>022-031>034-043>046-141200-
   NORTHWEST IOWA

CITY           SKY/WX    TMP DP  RH WIND       PRES   REMARKS
CARROLL *      CLOUDY    27  19  74 NW12      30.01R WCI  16
CHEROKEE *     CLOUDY    26  22  85 NE5       30.01S WCI  20
DENISON *      CLOUDY    28  23  80 N6        30.03R WCI  22
LE MARS *      CLOUDY    28  25  86 NE5       30.01R WCI  23
ORANGE CITY *  CLOUDY    27  25  93 E3        29.99S
SHELDON *      CLOUDY    23  21  93 NE5       29.98S WCI  17
SIOUX CITY     CLOUDY    31  25  78 SE3       30.02R
SPENCER        MOCLDY    21  16  81 N6        30.00R WCI  13
STORM LAKE *   CLOUDY    23  19  86 N9        29.99S WCI  13
$$

IAZ055>058-069>071-079>083-090>094-141200-
   SOUTHWEST IOWA

CITY           SKY/WX    TMP DP  RH WIND       PRES   REMARKS
ATLANTIC *     CLOUDY    28  23  80 N7        30.02S WCI  21
AUDUBON *      CLOUDY    28  21  74 N7        30.01S WCI  21
CLARINDA *     CLOUDY    32  25  74 NE6         N/A  WCI  26
COUNCIL BLFS * CLOUDY    34  28  80 NW6       30.01S WCI  29
CRESTON *      CLOUDY    27  21  80 NW7       30.01S WCI  19
HARLAN  *      CLOUDY    28  25  86 CALM      30.05S
LAMONI         CLOUDY    29  20  69 NW10      30.00R WCI  20
RED OAK *      CLOUDY    32  25  74 N3        30.03R
SHENANDOAH *   CLOUDY    36  27  69 NW5       30.04R WCI  32
$$

IAZ047>049-059>061-072>074-084-141200-
   CENTRAL IOWA

CITY           SKY/WX    TMP DP  RH WIND       PRES   REMARKS
AMES           CLOUDY    23  18  81 NW6       30.01R WCI  16
ANKENY *       CLOUDY    25  18  74 N7        30.03S WCI  17
BOONE *        CLOUDY    23  18  80 NW8       30.00R WCI  14
CHARITON *     CLOUDY    27  18  69 N9        29.99S WCI  17
DES MOINES     CLOUDY    26  17  68 N5        30.01S WCI  20
GRINNELL*      CLOUDY    23  18  81 CALM      30.01R
KNOXVILLE *    CLOUDY    27  18  69 NW5       29.99S WCI  21
MARSHALLTOWN   CLOUDY    23  17  78 NW3       29.99R
NEWTON *       CLOUDY    25  18  74 N7        30.01R WCI  17
PELLA *        MOCLDY    26  18  72 CALM      30.02R
PERRY *        CLOUDY    26  17  71 N6        30.02R WCI  19
$$

IAZ004>006-015-016-023>025-035-036-141200-
   NORTH CENTRAL IOWA

CITY           SKY/WX    TMP DP  RH WIND       PRES   REMARKS
ALGONA *       CLOUDY    19  18  93 N3        29.99S
CLARION *      CLOUDY    18  16  93 NW5       30.00R WCI  11
ESTHERVILLE    CLOUDY    21  16  81 N3        29.99R
MASON CITY     CLOUDY    18  14  84 N7        30.00R WCI   9
FOREST CITY *  CLOUDY    21  18  86 N8        29.99R WCI  12
WEBSTER CITY * CLOUDY    19  16  86 W5        29.99S WCI  13
IOWA FALLS *   CLOUDY    24  17  76 NW5       30.01R WCI  18
$$

IAZ007>011-017>019-026>030-037>042-050>054-066-141200-
   NORTHEAST IOWA

CITY           SKY/WX    TMP DP  RH WIND       PRES   REMARKS
CEDAR RAPIDS   PTCLDY    16  12  84 N3        29.99R
CHARLES CITY * CLOUDY    12  12 100 N7        29.99R WCI   2
CLINTON *      CLOUDY    22  16  78 N8        30.01R WCI  12
DECORAH *      PTCLDY    12  10  92 NW3       29.98R
DUBUQUE        MOCLDY    18  13  80 NE8       29.98R WCI   8
MONTICELLO *   CLOUDY    19  14  79 VRB5      29.99R WCI  13
OELWEIN *      CLOUDY    12  12 100 N7        29.99R WCI   2
WATERLOO       MOCLDY    15  11  83 N6        30.01R WCI   6
$$

IAZ064-065-067-068-078-141200-
   EAST CENTRAL IOWA

CITY           SKY/WX    TMP DP  RH WIND       PRES   REMARKS
DAVENPORT      CLOUDY    22  14  71 N6        30.02R WCI  14
IOWA CITY      PTCLDY    17  12  80 NW3       30.02R
MT. PLEASANT * PTCLDY    20  14  78 N5        30.00S WCI  13
MUSCATINE *    CLOUDY    19  16  86 N6        30.02S WCI  11
QUAD CITIES    CLOUDY    24  15  68 N6        30.00R WCI  17
$$

IAZ062-063-075>077-085>089-095>099-141200-
   SOUTHEAST IOWA

CITY           SKY/WX    TMP DP  RH WIND       PRES   REMARKS
BURLINGTON     CLOUDY    23  16  74 NW6       29.99R WCI  16
FAIRFIELD *    CLOUDY    19  12  73 N7        30.00R WCI  10
FORT MADISON * CLOUDY    25  18  74 CALM      30.01R
KEOKUK *       CLOUDY    27  19  74 N6G12     30.00R WCI  20
OSKALOOSA *    CLOUDY    24  17  74 NE5       30.01R WCI  19
OTTUMWA        CLOUDY    26  17  68 NE7       30.00R WCI  18
WASHINGTON *   PTCLDY    18  14  86 NW5       30.01S WCI  11
$$

ABBREVIATIONS USED IN REMARKS
   TC - TEMPERATURES IN CELSIUS
  WCI - WIND CHILL INDEX
   HX - HEAT INDEX
  VSB - VISIBILITY
$$




USA.gov is the U.S. government's official web portal to all federal, state and local government web resources and services.